Simultaneous Nadir Overpasses (SNOs) Predictions

Prediction of SNOs between METOP-B and NOAA-19 Satellite Orbit:

Table of predicted SNOs for the next 14.0 days since TLE Epoch: 1/11/2019
Index Date (METOP-B) Time (METOP-B) Lat,Lon (METOP-B) SZA (METOP-B ) Date (NOAA-19) Time (NOAA-19) Lat,Lon (NOAA-19) SZA (NOAA-19 ) Distance(km) Time Diff (sec)
1 01/21/2019 18:51:03 78.96, -89.08 98.92 01/21/2019 18:49:51 78.96, -89.21 98.90 2.83 72
2 01/21/2019 19:41:45 -78.96, 78.21 81.10 01/21/2019 19:40:52 -78.95, 78.08 81.11 2.82 53
3 01/21/2019 20:32:25 78.95,-114.51 98.89 01/21/2019 20:31:51 78.92,-114.47 98.86 2.71 34
4 01/21/2019 21:23:07 -78.94, 52.78 81.13 01/21/2019 21:22:52 -78.92, 52.83 81.15 2.80 15
5 01/21/2019 22:13:47 78.93,-139.94 98.86 01/21/2019 22:13:52 78.93,-139.98 98.85 1.28 5
6 01/21/2019 23:04:29 -78.93, 27.35 81.16 01/21/2019 23:04:53 -78.92, 27.32 81.17 1.32 24
7 01/21/2019 23:55:09 78.92,-165.37 98.83 01/21/2019 23:55:53 78.93,-165.49 98.84 2.81 44
8 01/22/2019 00:45:51 -78.92, 1.93 81.19 01/22/2019 00:46:54 -78.92, 1.81 81.18 2.53 63




NCC Satellite Simultaneous Nadir Overpasses (SNOs) Prediction Service
